Weather History for Athens, OH

Change the Weather History Date:

Sunday, May 4, 2014

  Actual Average (KPKB) Record (KPKB)
Temperature  
Mean Temperature 56 °F 59 °F  
Max Temperature 70 °F 71 °F 94 °F (1949)
Min Temperature 43 °F 47 °F 29 °F (2005)
Degree Days  
Heating Degree Days 8 7  
Since 1 July heating degree days 4834  
Growing Degree Days 6 (Base 50)    
Moisture  
Dew Point 38 °F    
Average Humidity 47    
Maximum Humidity 77    
Minimum Humidity 32    
Precipitation  
Precipitation 0.00 in 0.13 in 1.20 in (1990)
Month to date precipitation 0.49  
Year to date precipitation 13.14  
Sea Level Pressure  
Sea Level Pressure 29.94 in    
Wind  
Wind Speed 6 mph (WNW)    
Max Wind Speed 21 mph    
Max Gust Speed 30 mph    
Visibility 10 miles    
Events Rain    
T = Trace of Precipitation, MM = Missing Value Source: NWS Daily Summary

Daily Weather History Graph

Daily Weather History Graph

Search for Another Location

Airport:

Trip Planner

Search our weather history database for the weather conditions in past years. The results will help you decide how hot, cold, wet, or windy it might be!

Date:

Astronomy

May. 04, 2014 Rise Set
Actual Time 6:26 AM EDT 8:25 PM EDT
Civil Twilight 5:57 AM EDT 8:54 PM EDT
Nautical Twilight 5:22 AM EDT 9:29 PM EDT
Astronomical Twilight 4:43 AM EDT 10:08 PM EDT
Moon 10:50 AM EDT (5/4) 12:29 AM EDT (5/4)
Length of Visible Light 14h 56m
Length of Day
13h 58m
Waxing Crescent, 27% of the Moon is Illuminated
May 4
Waxing Crescent
May 6
First Quarter
May 14
Full
May 21
Last Quarter
May 28
New

Hourly Weather History & Observations

Time (EDT) Temp. Windchill Dew Point Humidity Pressure Visibility Wind Dir Wind Speed Gust Speed Precip Events Conditions
12:15 AM 49.1 °F - 36.5 °F 62% 29.93 in 10.0 mi West 3.5 mph - N/A   Clear
12:35 AM 49.6 °F - 35.8 °F 59% 29.93 in 10.0 mi Calm Calm - N/A   Clear
12:55 AM 50.4 °F - 34.9 °F 55% 29.94 in 10.0 mi SW 3.5 mph - N/A   Clear
1:15 AM 49.3 °F - 34.9 °F 58% 29.94 in 10.0 mi Calm Calm - N/A   Clear
1:35 AM 47.7 °F - 35.2 °F 62% 29.94 in 10.0 mi Calm Calm - N/A   Clear
1:55 AM 46.2 °F - 35.8 °F 67% 29.93 in 10.0 mi Calm Calm - N/A   Clear
2:15 AM 44.8 °F 43.3 °F 36.1 °F 72% 29.93 in 10.0 mi West 3.5 mph - N/A   Clear
2:35 AM 43.5 °F - 36.9 °F 77% 29.92 in 10.0 mi Calm Calm - N/A   Clear
2:55 AM 45.5 °F - 35.6 °F 68% 29.92 in 10.0 mi Calm Calm - N/A   Clear
3:15 AM 45.7 °F - 35.1 °F 66% 29.91 in 10.0 mi Calm Calm - N/A   Clear
3:35 AM 45.9 °F - 34.7 °F 65% 29.91 in 10.0 mi Calm Calm - N/A   Clear
3:55 AM 46.4 °F - 34.3 °F 63% 29.91 in 10.0 mi Calm Calm - N/A   Clear
4:15 AM 46.8 °F - 34.3 °F 62% 29.91 in 10.0 mi Calm Calm - N/A   Clear
4:35 AM 47.8 °F - 34.3 °F 60% 29.91 in 10.0 mi Calm Calm - N/A   Clear
4:55 AM 49.1 °F - 35.1 °F 58% 29.91 in 10.0 mi Calm Calm - N/A   Clear
5:15 AM 50.0 °F - 36.0 °F 59% 29.91 in 10.0 mi Calm Calm - N/A   Clear
5:35 AM 49.6 °F - 35.8 °F 59% 29.91 in 10.0 mi Calm Calm - N/A   Scattered Clouds
6:15 AM 51.8 °F - 37.0 °F 57% 29.91 in 10.0 mi WSW 3.5 mph - N/A   Scattered Clouds
6:35 AM 53.4 °F - 37.6 °F 55% 29.91 in 10.0 mi WSW 5.8 mph - N/A   Scattered Clouds
6:55 AM 53.4 °F - 37.9 °F 56% 29.92 in 10.0 mi WSW 6.9 mph - N/A   Scattered Clouds
7:15 AM 55.0 °F - 37.4 °F 51% 29.92 in 10.0 mi SW 9.2 mph - N/A   Mostly Cloudy
7:35 AM 55.8 °F - 37.4 °F 50% 29.92 in 10.0 mi SW 8.1 mph - N/A   Mostly Cloudy
7:55 AM 56.3 °F - 37.8 °F 50% 29.92 in 10.0 mi SW 4.6 mph - N/A   Mostly Cloudy
8:15 AM 56.3 °F - 39.4 °F 53% 29.93 in 10.0 mi SW 8.1 mph - N/A   Overcast
8:35 AM 57.2 °F - 38.5 °F 50% 29.93 in 10.0 mi SW 11.5 mph 17.3 mph N/A   Overcast
8:55 AM 57.7 °F - 38.8 °F 49% 29.93 in 10.0 mi SW 11.5 mph 18.4 mph N/A   Overcast
9:15 AM 58.5 °F - 39.7 °F 50% 29.93 in 10.0 mi WSW 9.2 mph - N/A   Overcast
9:35 AM 59.4 °F - 40.5 °F 50% 29.94 in 10.0 mi WSW 9.2 mph - N/A   Overcast
9:55 AM 60.6 °F - 41.2 °F 49% 29.94 in 10.0 mi West 9.2 mph - N/A   Overcast
10:15 AM 62.2 °F - 41.7 °F 47% 29.94 in 10.0 mi WSW 9.2 mph - N/A   Mostly Cloudy
10:35 AM 64.6 °F - 40.6 °F 42% 29.94 in 10.0 mi West 9.2 mph 20.7 mph N/A   Scattered Clouds
10:55 AM 64.0 °F - 40.6 °F 42% 29.93 in 10.0 mi WSW 16.1 mph 20.7 mph N/A   Clear
11:15 AM 66.0 °F - 41.9 °F 41% 29.92 in 10.0 mi SW 15.0 mph 18.4 mph N/A   Clear
11:35 AM 67.1 °F - 41.5 °F 39% 29.93 in 10.0 mi WSW 18.4 mph 23.0 mph N/A   Scattered Clouds
11:55 AM 66.4 °F - 39.4 °F 37% 29.94 in 10.0 mi West 20.7 mph 26.5 mph N/A   Overcast
12:35 PM 68.0 °F - 39.9 °F 36% 29.93 in 10.0 mi West 16.1 mph 23.0 mph N/A   Overcast
12:55 PM 68.4 °F - 39.4 °F 35% 29.93 in 10.0 mi West 19.6 mph 24.2 mph N/A   Scattered Clouds
1:15 PM 69.3 °F - 39.0 °F 33% 29.92 in 10.0 mi West 17.3 mph 24.2 mph N/A   Clear
1:35 PM 69.4 °F - 39.2 °F 33% 29.92 in 10.0 mi WNW 9.2 mph 19.6 mph N/A   Clear
1:55 PM 69.8 °F - 39.4 °F 33% 29.92 in 10.0 mi West 12.7 mph 20.7 mph N/A   Clear
2:15 PM 69.6 °F - 38.8 °F 33% 29.92 in 10.0 mi WNW 15.0 mph 24.2 mph N/A   Clear
2:35 PM 70.0 °F - 39.2 °F 33% 29.92 in 10.0 mi West 17.3 mph 25.3 mph N/A   Clear
2:55 PM 70.2 °F - 39.2 °F 32% 29.91 in 10.0 mi WNW 11.5 mph 27.6 mph N/A   Scattered Clouds
3:15 PM 70.5 °F - 39.2 °F 32% 29.92 in 10.0 mi West 19.6 mph 29.9 mph N/A   Scattered Clouds
3:35 PM 70.2 °F - 39.0 °F 32% 29.92 in 10.0 mi WNW 12.7 mph 26.5 mph N/A   Mostly Cloudy
3:55 PM 70.7 °F - 39.7 °F 32% 29.91 in 10.0 mi West 15.0 mph 23.0 mph N/A   Mostly Cloudy
4:15 PM 69.4 °F - 39.2 °F 33% 29.91 in 10.0 mi WNW 17.3 mph 23.0 mph N/A   Scattered Clouds
4:35 PM 70.7 °F - 39.6 °F 32% 29.91 in 10.0 mi WNW 16.1 mph 23.0 mph N/A   Scattered Clouds
4:55 PM 68.9 °F - 40.3 °F 35% 29.91 in 10.0 mi WNW 8.1 mph 20.7 mph N/A   Scattered Clouds
5:15 PM 68.4 °F - 40.5 °F 36% 29.93 in 10.0 mi NW 8.1 mph 17.3 mph N/A   Scattered Clouds
5:35 PM 69.1 °F - 40.1 °F 35% 29.92 in 10.0 mi West 9.2 mph 18.4 mph N/A   Scattered Clouds
5:55 PM 68.0 °F - 40.1 °F 36% 29.94 in 10.0 mi WNW 6.9 mph 17.3 mph N/A   Scattered Clouds
6:15 PM 66.9 °F - 39.0 °F 36% 29.94 in 10.0 mi NW 13.8 mph 19.6 mph N/A   Scattered Clouds
6:35 PM 65.5 °F - 40.3 °F 40% 29.95 in 10.0 mi WNW 8.1 mph - N/A Rain Light Rain
6:55 PM 64.0 °F - 40.5 °F 42% 29.95 in 10.0 mi NW 9.2 mph - N/A Rain Light Rain
7:15 PM 63.1 °F - 39.9 °F 42% 29.95 in 10.0 mi WNW 6.9 mph - N/A Rain Light Rain
7:35 PM 62.6 °F - 39.4 °F 42% 29.96 in 10.0 mi NW 9.2 mph - N/A Rain Light Rain
7:55 PM 61.3 °F - 38.1 °F 42% 29.97 in 10.0 mi NW 9.2 mph - N/A   Mostly Cloudy
8:15 PM 59.9 °F - 39.0 °F 46% 29.96 in 10.0 mi NNW 5.8 mph - N/A Rain Light Rain
8:35 PM 58.5 °F - 39.9 °F 50% 29.97 in 10.0 mi NNW 9.2 mph - N/A Rain Light Rain
8:55 PM 58.1 °F - 39.0 °F 49% 29.99 in 10.0 mi NNW 6.9 mph - N/A   Overcast
9:15 PM 57.7 °F - 39.0 °F 50% 29.99 in 10.0 mi North 5.8 mph - N/A   Mostly Cloudy
9:35 PM 57.9 °F - 37.4 °F 46% 30.00 in 10.0 mi NNW 5.8 mph - N/A   Mostly Cloudy
9:55 PM 57.6 °F - 36.5 °F 45% 30.02 in 10.0 mi North 3.5 mph - N/A   Scattered Clouds
10:15 PM 57.4 °F - 31.5 °F 37% 30.02 in 10.0 mi North 8.1 mph - N/A   Clear
10:35 PM 56.7 °F - 30.7 °F 37% 30.02 in 10.0 mi North 3.5 mph - N/A   Scattered Clouds
10:55 PM 56.3 °F - 28.8 °F 35% 30.04 in 10.0 mi North 9.2 mph - N/A   Mostly Cloudy
11:15 PM 55.8 °F - 28.6 °F 35% 30.03 in 10.0 mi North 6.9 mph - N/A   Mostly Cloudy
11:55 PM 54.7 °F - 29.3 °F 38% 30.03 in 10.0 mi North 6.9 mph - N/A   Scattered Clouds